Location: Le Rouget
(44.8538°N, 2.2328°E)
Time: 16:06:52
(UTC+00:00)

Cosmos 1726 Rocket - Pass Details

Date: 15 May 2026
Orbit: 555 x 660 km, 82.5° (Epoch: 10 June)

Event Time Altitude Azimuth Distance (km) Brightness Sun altitude
Exits shadow 21:25:51 41° 117° (ESE) 809 3.7 -18.4°
Maximum altitude 21:26:24 44° 93° (E) 773 3.7 -18.5°
Drops below altitude 10° 21:30:16 10° 21° (NNE) 1,848 6.4 -18.9°
Sets 21:32:30 0° 15° (NNE) 2,752 7.5 -19.1°
